Regional Weather Roundup
Issued by NWS Cleveland, OH

Home | Current Version | Previous Version | Graphics & Text | Print | Product List | Glossary On
Versions: 1 2 3 4 5 6 7 8 9 10 11 12 13 14 15 16 17 18 19 20 21 22 23 24 25 26 27 28 29 30 31 32 33 34 35 36 37 38 39 40 41 42 43 44 45 46 47 48 49 50
000
ASUS41 KCLE 271102
RWRCLE
OHIO REGIONAL WEATHER ROUNDUP
NATIONAL WEATHER SERVICE CLEVELAND, OH
700 AM EDT FRI MAY 27 2016

NOTE: "FAIR" INDICATES FEW OR NO CLOUDS BELOW 12,000 FEET WITH NO
SIGNIFICANT WEATHER AND/OR OBSTRUCTIONS TO VISIBILITY.

OHZ001>008-015>018-024>027-034-035-043-044-271200-
   NORTHWEST OHIO

CITY           SKY/WX    TMP DP  RH WIND       PRES   REMARKS
DEFIANCE       CLOUDY    64  60  87 CALM      29.99R
FINDLAY        CLOUDY    64  59  83 S7        30.00R
TOLEDO EXPRESS CLEAR     64  61  90 SW6       29.99R
TOLEDO EXEC    CLEAR     64  60  87 S3        30.00R
LIMA           PTCLDY    63  61  93 S6        30.01R
$$

OHZ009>014-019>023-028>033-038-089-271200-
   NORTHEAST OHIO

CITY           SKY/WX    TMP DP  RH WIND       PRES   REMARKS
CLE-HOPKINS    CLOUDY    68  63  84 SW8       30.04R
CLE-LAKEFRONT  CLEAR     71  62  73 SW8G18    30.00R
CUY CO. ARPT   CLEAR     70  64  83 SW7       30.03
LORAIN-ELYRIA  CLOUDY    65  60  84 SW6       30.02R
ASHTABULA      CLOUDY    67  66  97 S6        30.03R
AKRON-CANTON   PTCLDY    66  63  90 SW6       30.05R FOG
WOOSTER        MOCLDY    65  63  93 SW5       30.05R
MANSFIELD      MOCLDY    64  62  93 S12       30.04R
YOUNGSTOWN     CLOUDY    66  64  93 S6        30.04R
$$

OHZ042-051>053-060>062-070>072-077>081-271200-
  SOUTHWEST OHIO

CITY           SKY/WX    TMP DP  RH WIND       PRES   REMARKS
CINC-COVINGTON MOCLDY    61  61 100 S6        30.04R
CINC-LUNKEN    FOG       61  61 100 CALM      30.05R VSB 1/4
HAMILTON       PTCLDY    64  63  96 CALM      30.04S
DAYTON         MOCLDY    64  62  93 S8        30.04S
WRIGHT-PAT AFB MOCLDY    64  64 100 S5        30.03S
DAYTON GENERAL CLOUDY    63  61  93 S8        30.03S
WILMINGTON     CLOUDY    63  61  93 S6        30.05R
$$

OHZ036-037-039>041-045>050-054>059-063>069-073>076-082>088-271200-
  CENTRAL AND SOUTHEAST OHIO

CITY           SKY/WX    TMP DP  RH WIND       PRES   REMARKS
COLUMBUS       CLOUDY    65  61  87 CALM      30.04R
OSU AIRPORT    MOCLDY    65  61  87 S6        30.04R
BOLTON FIELD   NOT AVBL
RICKENBACK AFB NOT AVBL
NEWARK         CLEAR     65  60  84 CALM      30.05R
MARION         CLOUDY    64  61  90 S10       30.04R
LANCASTER      CLOUDY    65  61  87 SE3       30.06R
ZANESVILLE     PTCLDY    67  64  90 S3        30.06R
NEW PHILLY     CLOUDY    68  64  87 SE5       30.06R
$$




USA.gov is the U.S. government's official web portal to all federal, state and local government web resources and services.